Powrót do katalogu

STARLINK-36694

AktywnyŁącznośćSSO
NORAD 67653·PAYLOAD·🇺🇸 United States

Wystrzelony Feb 2, 2026 z Vandenberg Space Force Base

Loading…

Następne Przeloty (najbliższe 24 godziny)

TLE

ŚwieżeSource: CelesTrak SupGP

Epoka: Sep 14, 2026, 21:14 UTC

1 67653C 26022F   26257.88520833  .00004692  00000+0  14567-3 0  2571
2 67653  97.2839 289.4738 0001146 102.7771 234.7471 15.33433705    18

Śledź STARLINK-36694 w czasie rzeczywistym z AllMySat

Download on the App Store